Location: Ostrava
(49.8330°N, 18.2830°E)
Time: 00:00:13
(UTC+01:00)

Cosmos 1263 Rocket - Visible Passes

Search period start: 01 March 2015 00:00
Search period end: 11 March 2015 00:00
Orbit: 297 x 471 km, 82.9° (Epoch: 28 February)

Date Brightness Start Highest point End Pass type
(mag) Time Alt. Az. Time Alt. Az. Time Alt. Az.
01 Mar 4.2 03:38:41 25° NE 03:38:41 25° NE 03:40:33 10° NNE visible
01 Mar 3.7 05:11:01 17° NW 05:11:01 17° NW 05:12:54 10° NNW visible
02 Mar 3.4 04:15:48 29° N 04:15:48 29° N 04:17:44 10° N visible
03 Mar 4.7 03:20:24 18° NE 03:20:24 18° NE 03:21:31 10° NNE visible
03 Mar 3.9 04:52:42 16° NW 04:52:42 16° NW 04:53:59 10° NNW visible
04 Mar 4.0 03:57:07 21° N 03:57:07 21° N 03:58:28 10° N visible
05 Mar 5.1 03:01:23 13° NNE 03:01:23 13° NNE 03:01:53 10° NNE visible
05 Mar 4.2 04:33:39 14° NNW 04:33:39 14° NNW 04:34:28 10° NNW visible
06 Mar 4.5 03:37:44 16° N 03:37:44 16° N 03:38:34 10° N visible
07 Mar 4.5 04:13:55 12° NNW 04:13:55 12° NNW 04:14:22 10° NNW visible
08 Mar 4.9 03:17:40 13° N 03:17:40 13° N 03:18:04 10° N visible
09 Mar 4.7 03:53:30 11° NNW 03:53:30 11° NNW 03:53:37 10° NNW visible
10 Mar 5.2 02:56:56 10° N 02:56:56 10° N 02:56:56 10° N visible
